Terminal Aerodrome Forecast
Issued by NWS

Home | Current Version | Previous Version | Graphics & Text | Print | Product List | Glossary Off
Versions: 1 2 3 4 5 6 7 8 9 10 11 12 13 14 15 16 17 18 19 20 21 22 23 24 25 26

000
FTUS43 KDDC 021736
TAFHYS
TAF
KHYS 021736Z 0218/0318 17017G21KT P6SM OVC050
     FM022100 16013KT P6SM OVC015
     FM030400 18018G22KT 3SM BR OVC004
     FM031500 23014KT 5SM HZ OVC007=

USA.gov is the U.S. government's official web portal to all federal, state and local government web resources and services.